User: anonymous   Login
Location: Meriden
(44.0740°N, 93.3870°W)
Time: 09:58:10
(UTC-05:00)
Language:

AO-27 - Orbit

View from above orbital plane
View from above orbital plane
View from above satellite
View from above satellite

Ground track
Ground track

The orbit data is extracted from the following two-line orbital elements,

1 22825U 93061C   16243.39492051  .00000011  00000-0  21787-4 0  9998
2 22825  98.7666 200.1280 0009527  99.3871 260.8388 14.29965741195846
Epoch (UTC): 30 August 2016 09:28:41
Eccentricity: 0.0009527
inclination: 98.7666°
perigee height: 785 km
apogee height: 798 km
right ascension of ascending node: 200.1280°
argument of perigee: 99.3871°
revolutions per day: 14.29965741
mean anomaly at epoch: 260.8388°
orbit number at epoch: 19584

The dashed part of the orbit path shows where the satellite is in the earth's shadow,  

DLR